Volver al catálogo

SATCOM 3 DEB

LostHEO
NORAD 32986·DEBRIS·🇺🇸 United States

Lanzado Dec 7, 1979 desde Cape Canaveral Space Force Station

Loading…

Próximos Pases (próximas 24 horas)

TLE

ObsoletoSource: Space-Track

Época: Jul 31, 2026, 18:59 UTC

1 32986U 79101M   26212.79159102 -.00000084  00000-0  00000+0 0  9995
2 32986   8.8886  74.0930 4818954 123.1224 201.3738  1.82660073123457

Sigue SATCOM 3 DEB en tiempo real con AllMySat

Download on the App Store